الصفحة الرئيسية
METAR-TAF:

METAR-TAF

مطار :

مدينة همدان, إيران

دائرة عرض: 34-52-05N, خط طول: 048-33-08E, ارتفاع: 1757 متر

مراقبة الطقس الحالي

تاريخ ووقت الإصدار 44 دقيقة قبل الساعة 02:51UTC
ريح 4 عقدة من الشرق/الجنوب الشرقي
درجة الحرارة -8°درجة مئوية
الرطوبة 73%
ضغط 1021 hPa
الرؤية 10 كم أو أكثر
الغيوم لا تقل 1500 م ولا وجود لمزنة ركامية السحاب الأسود

METAR: OIHH 240251Z 12004KT CAVOK M08/M12 Q1021

زمن: 07:05 (03:35 UTC)


TAF: مفقودة

أرصاد الطقس والتوقعات من أكثر من 4000 مطار (تقارير الطقس للمطار METAR والتنبؤ بالطقس بالمطارTAF).

المحطات المتاحة هي النقط الصفراء والحمراء على الخريطة.

حرك المؤشر فوق النقطة لمعرفة اسم المحطة.

ثم انقر لمعرفة أرصاد وتوقعات الطقس.

لتغيير الخارطة: اضغط على الأزرار الخضراء مع رمز الصليب الأسود للتكبير. على الزر الأخضر مع شرطة للتصغير، أو على الأسهم الخضراء للخرائط المجاورة.


METAR-TAF: